| time (UTC) | temp F | wind direction | speed MPH | gust MPH | rain 1hr in | rain 24hr in | rain mn in | humidity % | barometer mb |
| 20260504100605 | 75 | 63 | 3.0 | 7.0 | 0.00 | 0.00 | 0.00 | 51 | 1018.4 |
| 20260504081606 | 71 | 79 | 2.0 | 4.0 | 0.00 | 0.00 | 0.00 | 55 | 1018.7 |
| 20260504080605 | 70 | 79 | 1.0 | 2.0 | 0.00 | 0.00 | 0.00 | 54 | 1018.6 |
| 20260504050604 | 58 | 247 | 0.0 | 2.0 | 0.00 | 0.00 | 0.00 | 69 | 1017.7 |
| 20260504045558 | 58 | 247 | 1.0 | 3.0 | 0.00 | 0.00 | 0.00 | 69 | 1017.7 |
| 20260504044554 | 58 | 261 | 0.0 | 1.0 | 0.00 | 0.00 | 0.00 | 68 | 1017.6 |
| 20260504044119 | 58 | 255 | 1.0 | 2.0 | 0.00 | 0.00 | 0.00 | 68 | 1017.5 |
| 20260504042556 | 58 | 257 | 1.0 | 3.0 | 0.00 | 0.00 | 0.00 | 67 | 1017.5 |
| 20260504041817 | 59 | 288 | 2.0 | 3.0 | 0.00 | 0.00 | 0.00 | 65 | 1017.4 |
| 20260504041638 | 59 | 269 | 2.0 | 3.0 | 0.00 | 0.00 | 0.00 | 66 | 1017.4 |
| 20260504040400 | 59 | 288 | 2.0 | 3.0 | 0.00 | 0.00 | 0.00 | 64 | 1017.4 |
| 20260504035656 | 59 | 288 | 2.0 | 2.0 | 0.00 | 0.00 | 0.00 | 65 | 1017.5 |
| 20260504033554 | 60 | 288 | 3.0 | 3.0 | 0.00 | 0.00 | 0.00 | 63 | 1017.3 |
| 20260504032554 | 60 | 278 | 3.0 | 5.0 | 0.00 | 0.00 | 0.00 | 64 | 1017.3 |
| 20260504031555 | 60 | 283 | 3.0 | 5.0 | 0.00 | 0.00 | 0.00 | 64 | 1017.4 |
| 20260504030554 | 60 | 293 | 2.0 | 4.0 | 0.00 | 0.00 | 0.00 | 64 | 1017.4 |
| 20260504025551 | 60 | 285 | 3.0 | 4.0 | 0.00 | 0.00 | 0.00 | 63 | 1017.5 |
| 20260504025138 | 60 | 278 | 3.0 | 4.0 | 0.00 | 0.00 | 0.00 | 63 | 1017.5 |
| 20260504023553 | 60 | 282 | 4.0 | 7.0 | 0.00 | 0.00 | 0.00 | 63 | 1017.5 |
| 20260504022549 | 61 | 283 | 4.0 | 4.0 | 0.00 | 0.00 | 0.00 | 63 | 1017.6 |
| 20260504021552 | 61 | 272 | 3.0 | 4.0 | 0.00 | 0.00 | 0.00 | 63 | 1017.6 |
| 20260504020548 | 61 | 279 | 3.0 | 4.0 | 0.00 | 0.00 | 0.00 | 63 | 1017.6 |
| 20260504015738 | 61 | 272 | 3.0 | 4.0 | 0.00 | 0.00 | 0.00 | 64 | 1017.4 |
| 20260504015631 | 61 | 271 | 3.0 | 4.0 | 0.00 | 0.00 | 0.00 | 63 | 1017.4 |
| 20260504013548 | 61 | 0.0 | 0.0 | 0.00 | 0.00 | 0.00 | 64 | 1017.4 | |
| 20260504012625 | 62 | 274 | 4.0 | 5.0 | 0.00 | 0.00 | 0.00 | 62 | 1017.4 |
| 20260504012556 | 61 | 0.0 | 4.0 | 0.00 | 0.00 | 0.00 | 63 | 1017.5 | |
| 20260504011654 | 62 | 276 | 3.0 | 5.0 | 0.00 | 0.00 | 0.00 | 63 | 1017.5 |
| 20260504005541 | 62 | 276 | 4.0 | 6.0 | 0.00 | 0.00 | 0.00 | 62 | 1017.4 |
| 20260504004544 | 62 | 275 | 4.0 | 7.0 | 0.00 | 0.00 | 0.00 | 62 | 1017.4 |
| 20260504003543 | 62 | 281 | 4.0 | 4.0 | 0.00 | 0.00 | 0.00 | 62 | 1017.4 |
| 20260504002537 | 62 | 276 | 3.0 | 4.0 | 0.00 | 0.00 | 0.00 | 62 | 1017.5 |
| 20260504001540 | 62 | 268 | 2.0 | 4.0 | 0.00 | 0.00 | 0.00 | 62 | 1017.5 |
| 20260504000539 | 62 | 257 | 3.0 | 4.0 | 0.00 | 0.00 | 0.00 | 62 | 1017.5 |
| 20260504000235 | 62 | 274 | 3.0 | 4.0 | 0.00 | 0.00 | 0.00 | 62 | 1017.6 |
| 20260503234533 | 62 | 278 | 3.0 | 4.0 | 0.00 | 0.00 | 0.00 | 62 | 1017.7 |
| 20260503233535 | 62 | 274 | 4.0 | 4.0 | 0.00 | 0.00 | 0.00 | 62 | 1017.7 |
| 20260503232536 | 62 | 274 | 3.0 | 4.0 | 0.00 | 0.00 | 0.00 | 62 | 1017.7 |
| 20260503231532 | 63 | 254 | 3.0 | 4.0 | 0.00 | 0.00 | 0.00 | 62 | 1017.8 |
| 20260503230533 | 63 | 272 | 3.0 | 4.0 | 0.00 | 0.00 | 0.00 | 61 | 1017.8 |
| 20260503225529 | 62 | 274 | 3.0 | 5.0 | 0.00 | 0.00 | 0.00 | 61 | 1017.9 |
| 20260503224530 | 63 | 209 | 3.0 | 5.0 | 0.00 | 0.00 | 0.00 | 60 | 1017.8 |
| 20260503223533 | 63 | 266 | 3.0 | 3.0 | 0.00 | 0.00 | 0.00 | 59 | 1017.8 |
| 20260503222524 | 63 | 271 | 3.0 | 4.0 | 0.00 | 0.00 | 0.00 | 59 | 1017.8 |
| 20260503221525 | 62 | 251 | 3.0 | 4.0 | 0.00 | 0.00 | 0.00 | 59 | 1017.8 |
| 20260503220520 | 63 | 252 | 3.0 | 3.0 | 0.00 | 0.00 | 0.00 | 58 | 1017.8 |
| 20260503220315 | 63 | 255 | 2.0 | 3.0 | 0.00 | 0.00 | 0.00 | 58 | 1017.7 |
| 20260503214528 | 63 | 262 | 2.0 | 3.0 | 0.00 | 0.00 | 0.00 | 58 | 1017.7 |
| 20260503214055 | 63 | 261 | 2.0 | 3.0 | 0.00 | 0.00 | 0.00 | 59 | 1017.6 |
| 20260503213233 | 63 | 251 | 2.0 | 3.0 | 0.00 | 0.00 | 0.00 | 60 | 1017.6 |
| 20260503211515 | 62 | 252 | 2.0 | 3.0 | 0.00 | 0.00 | 0.00 | 60 | 1017.6 |
| 20260503211153 | 62 | 285 | 3.0 | 4.0 | 0.00 | 0.00 | 0.00 | 61 | 1017.5 |
| 20260503205505 | 62 | 288 | 3.0 | 4.0 | 0.00 | 0.00 | 0.00 | 62 | 1017.5 |
| 20260503204511 | 62 | 276 | 2.0 | 3.0 | 0.00 | 0.00 | 0.00 | 62 | 1017.5 |
| 20260503203507 | 62 | 274 | 2.0 | 3.0 | 0.00 | 0.00 | 0.00 | 63 | 1017.5 |
| 20260503202503 | 62 | 307 | 2.0 | 3.0 | 0.00 | 0.00 | 0.00 | 63 | 1017.5 |
| 20260503201828 | 61 | 192 | 0.0 | 1.0 | 0.00 | 0.00 | 0.00 | 61 | 1017.4 |
| 20260503201606 | 61 | 224 | 1.0 | 3.0 | 0.00 | 0.00 | 0.00 | 62 | 1017.4 |
| 20260503195504 | 62 | 192 | 1.0 | 1.0 | 0.00 | 0.00 | 0.00 | 59 | 1017.4 |
| 20260503194503 | 62 | 192 | 0.0 | 2.0 | 0.00 | 0.00 | 0.00 | 58 | 1017.3 |
| 20260503193502 | 62 | 221 | 0.0 | 2.0 | 0.00 | 0.00 | 0.00 | 58 | 1017.4 |
| 20260503192503 | 63 | 166 | 1.0 | 3.0 | 0.00 | 0.00 | 0.00 | 58 | 1017.3 |
| 20260503191500 | 63 | 147 | 2.0 | 4.0 | 0.00 | 0.00 | 0.00 | 57 | 1017.2 |
| 20260503190501 | 63 | 159 | 1.0 | 4.0 | 0.00 | 0.00 | 0.00 | 58 | 1017.2 |
| 20260503185502 | 64 | 134 | 2.0 | 4.0 | 0.00 | 0.00 | 0.00 | 58 | 1017.2 |
| 20260503184459 | 64 | 158 | 2.0 | 4.0 | 0.00 | 0.00 | 0.00 | 57 | 1017.1 |
| 20260503183459 | 65 | 168 | 1.0 | 3.0 | 0.00 | 0.00 | 0.00 | 57 | 1016.9 |
| 20260503182501 | 65 | 180 | 2.0 | 2.0 | 0.00 | 0.00 | 0.00 | 56 | 1017.1 |
| 20260503181459 | 66 | 0.0 | 3.0 | 0.00 | 0.00 | 0.00 | 56 | 1016.9 | |
| 20260503180501 | 66 | 248 | 0.0 | 4.0 | 0.00 | 0.00 | 0.00 | 55 | 1017.1 |
| 20260503175459 | 67 | 155 | 1.0 | 5.0 | 0.00 | 0.00 | 0.00 | 54 | 1016.9 |
| 20260503174500 | 68 | 159 | 3.0 | 5.0 | 0.00 | 0.00 | 0.00 | 52 | 1016.9 |
| 20260503173504 | 68 | 110 | 2.0 | 5.0 | 0.00 | 0.00 | 0.00 | 52 | 1016.9 |
| 20260503172459 | 68 | 63 | 2.0 | 5.0 | 0.00 | 0.00 | 0.00 | 52 | 1016.9 |
| 20260503171458 | 69 | 138 | 1.0 | 5.0 | 0.00 | 0.00 | 0.00 | 52 | 1017.1 |
| 20260503171222 | 69 | 148 | 2.0 | 7.0 | 0.00 | 0.00 | 0.00 | 51 | 1017.1 |
| 20260503130453 | 78 | 92 | 5.0 | 6.0 | 0.00 | 0.00 | 0.00 | 34 | 1018.2 |